Sheppard Air Force Base-Wichita Falls Municipal Airport Wichita Falls US
ICAO: KSPS
IATA: SPS
Category: Large
Scheduled Services: Yes

Elevation: 1019 ft
TransAlt. 18000 ft.

Airport Communications:
APP:118.2
ATIS:132.05
CLNC DEL:121.2
CTAF:119.75
DEP:120.4
GND:125.5
PMSV METRO:34.46
PTD:37.22
FORT WORTH RDO:122.65
TWR:119.75
UNICOM:122.95

KSPS Zoom In..

If you have problems with the map follow the link
https://www.worldairports.se/pages/airport.php?
ICAO=KSPS

Runways:

(A) RW 15C length 10002 ft width 150 ft
ILS 110.50 / hdg 153

(B) RW 15L length 6000 ft width 150 ft
---- / hdg 153

(C) RW 15R length 13100 ft width 300 ft
---- / hdg 153

(D) RW 17 length 7021 ft width 150 ft
---- / hdg 175

(E) RW 33C length 10002 ft width 150 ft
---- / hdg 333

(F) RW 33L length 13100 ft width 300 ft
ILS 109.70 / hdg 333

(G) RW 33R length 6000 ft width 150 ft
---- / hdg 333

(H) RW 35 length 7021 ft width 150 ft
---- / hdg 355

Location; KSPS
Day. 21 / Time. 20.52 Zulu
* Altimeter: 30.26
* Temperature: 12° c. 53.6°f.
* Wind from: 150° Speed 17 kn.
Dewpoint: -01° c.
Visibility: 10 Statute Miles.
Clouds: Broken 15000 ft.

KSPS 212052Z 15017KT 10SM BKN150 12/M01 A3026 RMK AO2 SLP250 T01171006 56054


Wind From 150°
Speed 17 kn.

 
 
jpsmedia worldairports.se 2020   terms of use